User: anonymous   Login
Location: Unspecified
(0.0000°N, 0.0000°E)
Time: 22:12:04
(UTC+00:00)
Language:

Picosat 9 - Orbit

View from above orbital plane
View from above orbital plane
View from above satellite
View from above satellite

Ground track
Ground track

The orbit data is extracted from the following two-line orbital elements,

1 26930U 01043B   24108.33917436  .00000460  00000-0  20580-3 0  9997
2 26930  67.0006  72.7236 0006236 231.7985 128.2555 14.31100608177692
Epoch (UTC): 17 April 2024 08:08:24
Eccentricity: 0.0006236
inclination: 67.0006°
perigee height: 783 km
apogee height: 792 km
right ascension of ascending node: 72.7236°
argument of perigee: 231.7985°
revolutions per day: 14.31100608
mean anomaly at epoch: 128.2555°
orbit number at epoch: 17769

The dashed part of the orbit path shows where the satellite is in the earth's shadow,  

DLR